User: anonymous   Login
Location: Young's Pond
(41.2695°N, 72.7766°W)
Time: 19:14:40
(UTC-05:00)
Language:

CZ-4B R/B - Orbit

View from above orbital plane
View from above orbital plane
View from above satellite
View from above satellite

Ground track
Ground track

The orbit data is extracted from the following two-line orbital elements,

1 29093U 06015B   17053.86413545  .00004040  00000-0  99649-4 0  9996
2 29093  97.4867 162.1786 0065735  10.0958 350.1589 15.38926949599949
Epoch (UTC): 22 February 2017 20:44:21
Eccentricity: 0.0065735
inclination: 97.4867°
perigee height: 404 km
apogee height: 494 km
right ascension of ascending node: 162.1786°
argument of perigee: 10.0958°
revolutions per day: 15.38926949
mean anomaly at epoch: 350.1589°
orbit number at epoch: 59994

The dashed part of the orbit path shows where the satellite is in the earth's shadow,  

DLR